{"data":{"norad_id":62173,"epoch":"2026-09-21T16:45:08.346528Z","epoch_age_seconds":74094,"freshness":"FRESH","line1":"1 62173U 24225L   26264.69801327  .00009467  00000+0  33332-3 0  9992","line2":"2 62173  70.0020  17.9133 0003314 265.3285  94.7512 15.29581708 99547","mean_motion":15.29581708,"eccentricity":0.0003314,"inclination_deg":70.002,"raan_deg":17.9133,"arg_perigee_deg":265.3285,"mean_anomaly_deg":94.7512,"bstar":0.00033332,"rev_number":9954,"period_min":94.143385245033,"perigee_km":474.78998683944,"apogee_km":479.33361260389,"semimajor_km":6855.1987997217,"source":"CELESTRAK","updated_at":"2026-09-22T09:00:49.536171Z"}}